User: anonymous   Login
Location: Unspecified
(0.0000°N, 0.0000°E)
Time: 16:18:12
(UTC+02:00)
Language:

Cosmos 1943 Rocket - Orbit

View from above orbital plane
View from above orbital plane
View from above satellite
View from above satellite

Ground track
Ground track

The orbit data is extracted from the following two-line orbital elements,

1 19120U 88039B   16244.18626228 -.00000087  00000-0 -18422-4 0  9991
2 19120  71.0123 217.6696 0024241 272.4913  87.3437 14.19152371465244
Epoch (UTC): 31 August 2016 04:28:13
Eccentricity: 0.0024241
inclination: 71.0123°
perigee height: 811 km
apogee height: 845 km
right ascension of ascending node: 217.6696°
argument of perigee: 272.4913°
revolutions per day: 14.19152371
mean anomaly at epoch: 87.3437°
orbit number at epoch: 46524

The dashed part of the orbit path shows where the satellite is in the earth's shadow,  

DLR